Location: Treviso
(45.6669°N, 12.2430°E)
Time: 00:40:23
(UTC+02:00)

ISS - Pass Details

Date: 25 May 2017
Orbit: 402 x 408 km, 51.6° (Epoch: 30 May)

Event Time Altitude Azimuth Distance (km) Brightness Sun altitude
Rises 22:35:09 0° 244° (WSW) 2,326 0.2 -14.8°
Reaches altitude 10° 22:37:14 10° 246° (WSW) 1,467 -0.8 -15.0°
Maximum altitude 22:40:31 76° 332° (NNW) 424 -3.7 -15.3°
Drops below altitude 10° 22:43:49 10° 60° (ENE) 1,471 -1.0 -15.6°
Sets 22:45:55 0° 62° (ENE) 2,333 0.0 -15.8°
